Terminal Aerodrome Forecast
Issued by NWS

Home | Current Version | Previous Version | Graphics & Text | Print | Product List | Glossary On
Versions: 1 2 3 4 5 6 7 8 9 10 11 12 13 14 15 16 17 18 19 20 21
000
FTUS43 KFGF 181400 AAA
TAFBJI
TAF AMD
KBJI 181426Z 1814/1912 VRB03KT 1SM BR VCSH OVC004
      TEMPO 1814/1817 -RA BR SCT005
     FM181700 16006KT 4SM BR VCTS BKN015CB
     FM181900 VRB04KT P6SM VCTS BKN025CB
     FM190300 33003KT P6SM SCT025 BKN100=

USA.gov is the U.S. government's official web portal to all federal, state and local government web resources and services.